period_start,C,m1,H,J0,J1,J2,J3,J4,J5,JA,JB,JC,JD,JJ,JK,JN,#
2014-09-26 00:02:48,-0.00,0.10,0.00,19.86,26.25,28.73,9.55,39.79,1004.92,2041.99,3471.00,3305.06,3581.00,499.52,495.92,22.52,0000 0000 0000 0000 000000
2014-09-26 00:07:49,0.00,0.10,0.00,19.79,26.25,28.78,9.70,39.84,1004.91,2041.99,3470.98,3305.03,3581.00,500.17,496.55,22.56,0000 0000 0000 0000 000000
2014-09-26 00:12:50,0.00,0.10,0.00,19.70,26.24,28.60,9.63,39.72,1004.90,2041.99,3470.95,3305.03,3581.00,499.64,496.17,22.60,0000 0000 0000 0000 000000
2014-09-26 00:17:51,0.00,0.10,0.00,19.75,26.22,28.35,9.69,39.77,1004.90,2042.00,3470.86,3305.04,3580.99,500.28,496.84,22.65,0000 0000 0000 0000 000000
2014-09-26 00:22:53,0.01,0.10,0.00,19.74,26.22,28.42,9.63,39.83,1004.90,2042.00,3470.54,3305.01,3580.97,500.18,496.51,22.69,0000 0000 0000 0000 000000
2014-09-26 00:27:54,0.00,0.11,0.00,19.72,26.22,28.51,9.63,39.64,1004.90,2042.00,3470.32,3305.01,3580.97,500.21,496.65,22.73,0000 0000 0000 0000 000000
2014-09-26 00:32:55,0.00,0.11,0.00,19.73,26.21,28.52,9.68,39.73,1004.90,2042.01,3470.20,3305.04,3580.98,500.05,496.50,22.77,0000 0000 0000 0000 000000
2014-09-26 00:37:56,0.00,0.11,0.00,19.71,26.20,28.48,9.63,39.76,1004.89,2042.01,3470.08,3305.02,3580.97,500.11,496.62,22.81,0000 0000 0000 0000 000000
2014-09-26 00:42:57,0.01,0.11,0.00,19.68,26.20,28.37,9.60,39.68,1004.85,2042.04,3470.02,3305.02,3580.92,499.89,496.45,22.86,0000 0000 0000 0000 000000
2014-09-26 00:47:58,0.00,0.11,0.00,19.66,26.19,28.24,9.72,39.77,1004.81,2042.01,3470.00,3305.00,3580.51,500.14,496.72,22.90,0000 0000 0000 0000 000000
2014-09-26 00:52:59,0.00,0.11,0.00,19.63,26.17,28.33,9.61,39.66,1004.72,2042.00,3470.00,3305.00,3580.30,499.49,496.03,22.94,0000 0000 0000 0000 000000
2014-09-26 00:58:00,0.00,0.11,0.00,19.53,26.17,28.45,9.73,39.83,1004.63,2042.01,3470.01,3305.00,3580.22,500.19,496.83,22.98,0000 0000 0000 0000 000000
2014-09-26 01:03:02,0.00,0.11,0.00,19.62,26.17,28.27,9.64,39.71,1004.47,2042.01,3470.00,3305.00,3580.10,499.80,496.47,23.02,0000 0000 0000 0000 000000
2014-09-26 01:08:03,-0.00,0.11,0.00,19.57,26.15,28.22,9.66,39.66,1004.43,2042.02,3470.00,3305.01,3580.07,499.92,496.58,23.06,0000 0000 0000 0000 000000
2014-09-26 01:13:04,0.00,0.11,0.00,19.55,26.15,28.10,9.65,39.65,1004.42,2042.04,3470.00,3305.01,3580.05,499.84,496.42,23.11,0000 0000 0000 0000 000000
2014-09-26 01:18:05,-0.00,0.11,0.00,19.67,26.14,28.15,9.60,39.60,1004.41,2042.02,3469.98,3305.01,3580.01,499.69,496.01,23.15,0000 0000 0000 0000 000000
2014-09-26 01:23:06,0.01,0.11,0.00,19.67,26.12,28.46,9.62,39.71,1004.41,2042.06,3469.93,3305.01,3580.01,499.78,496.08,23.19,0000 0000 0000 0000 000000
2014-09-26 01:28:07,0.00,0.11,0.00,19.71,26.12,28.62,9.69,39.76,1004.41,2042.10,3469.86,3305.02,3580.01,499.86,496.18,23.23,0000 0000 0000 0000 000000
2014-09-26 01:33:08,0.02,0.11,0.00,19.65,26.11,28.73,9.63,39.59,1004.41,2042.24,3469.74,3305.04,3580.00,500.28,496.79,23.27,0000 0000 0000 0000 000000
2014-09-26 01:38:10,0.00,0.11,0.00,19.63,26.10,28.65,9.68,39.75,1004.40,2042.29,3469.67,3305.05,3580.00,500.11,496.68,23.32,0000 0000 0000 0000 000000
2014-09-26 01:43:11,0.01,0.11,0.00,19.73,26.10,28.54,9.70,39.73,1004.38,2042.38,3469.77,3305.07,3580.00,500.27,496.33,23.36,0000 0000 0000 0000 000000
2014-09-26 01:48:12,0.02,0.11,0.00,19.72,26.10,28.43,9.74,39.64,1004.29,2042.42,3469.42,3305.03,3580.00,500.27,496.45,23.40,0000 0000 0000 0000 000000
2014-09-26 01:53:13,0.01,0.11,0.00,19.69,26.09,28.35,9.62,39.61,1004.30,2042.45,3469.15,3305.04,3579.99,500.21,496.47,23.44,0000 0000 0000 0000 000000
2014-09-26 01:58:15,0.01,0.11,0.00,19.67,26.07,28.26,9.68,39.77,1004.24,2042.72,3469.08,3305.08,3579.99,500.14,496.28,23.48,0000 0000 0000 0000 000000
2014-09-26 02:03:16,0.00,0.11,0.00,19.58,26.07,28.44,9.58,39.67,1004.02,2042.77,3469.00,3305.02,3579.97,499.84,496.09,23.53,0000 0000 0000 0000 000000
2014-09-26 02:08:17,0.02,0.11,0.00,19.53,26.07,28.43,9.71,39.66,1003.95,2042.82,3469.00,3305.01,3579.94,500.07,496.46,23.57,0000 0000 0000 0000 000000
2014-09-26 02:13:19,0.00,0.11,0.00,19.48,26.07,28.33,9.61,39.65,1003.95,2042.86,3468.99,3305.01,3579.84,500.21,496.43,23.61,0000 0000 0000 0000 000000
2014-09-26 02:18:20,0.00,0.11,0.00,19.50,26.06,28.22,9.68,39.74,1003.93,2042.81,3468.97,3305.00,3579.35,499.89,496.19,23.65,0000 0000 0000 0000 000000
2014-09-26 02:23:21,0.02,0.11,0.00,19.50,26.05,28.34,9.64,39.82,1003.94,2042.76,3468.61,3305.00,3579.04,500.24,496.60,23.69,0000 0000 0000 0000 000000
2014-09-26 02:28:22,0.01,0.11,0.00,19.52,26.05,28.18,9.68,39.66,1003.93,2042.72,3468.20,3305.00,3579.00,500.06,496.48,23.74,0000 0000 0000 0000 000000
2014-09-26 02:33:23,0.01,0.11,0.00,19.48,26.05,28.26,9.71,39.84,1003.92,2042.89,3468.18,3305.00,3579.00,500.25,496.68,23.78,0000 0000 0000 0000 000000
2014-09-26 02:38:24,0.00,0.11,0.00,19.57,26.05,28.17,9.65,39.56,1003.92,2042.95,3468.31,3305.00,3579.01,499.75,495.98,23.82,0000 0000 0000 0000 000000
2014-09-26 02:43:26,0.01,0.11,0.00,19.63,26.04,28.10,9.68,39.73,1003.92,2042.98,3468.16,3305.01,3579.00,500.15,496.27,23.86,0000 0000 0000 0000 000000
2014-09-26 02:48:27,-0.00,0.11,0.00,19.55,26.02,28.07,9.58,39.58,1003.92,2042.99,3468.24,3305.02,3579.02,499.89,496.02,23.90,0000 0000 0000 0000 000000
2014-09-26 02:53:28,0.00,0.11,0.00,19.58,26.02,28.15,9.65,39.71,1003.92,2042.98,3468.07,3305.00,3579.00,499.90,496.13,23.95,0000 0000 0000 0000 000000
2014-09-26 02:58:29,0.00,0.11,0.00,19.49,26.02,28.02,9.68,39.65,1003.92,2042.99,3468.01,3305.00,3578.99,499.98,496.33,23.99,0000 0000 0000 0000 000000
2014-09-26 03:03:31,0.00,0.11,0.00,19.56,26.02,27.93,9.57,39.76,1003.91,2042.99,3468.01,3305.00,3578.99,500.02,496.33,24.03,0000 0000 0000 0000 000000
2014-09-26 03:08:32,0.00,0.11,0.00,19.49,26.01,27.90,9.64,39.70,1003.82,2042.99,3468.00,3305.00,3578.98,499.74,496.16,24.07,0000 0000 0000 0000 000000
2014-09-26 03:13:33,0.00,0.11,0.00,19.47,26.00,27.72,9.60,39.59,1003.62,2042.99,3468.00,3305.00,3578.98,499.91,496.25,24.11,0000 0000 0000 0000 000000
2014-09-26 03:18:33,0.00,0.11,0.00,19.46,26.00,27.73,9.63,39.71,1003.49,2042.99,3468.00,3305.00,3578.98,500.01,496.25,24.16,0000 0000 0000 0000 000000
2014-09-26 03:23:34,0.00,0.11,0.00,19.34,26.00,27.71,9.69,39.74,1003.48,2042.99,3468.00,3305.00,3578.95,500.00,496.54,24.20,0000 0000 0000 0000 000000
2014-09-26 03:28:35,0.00,0.11,0.00,19.44,25.98,27.90,9.63,39.69,1003.50,2042.99,3467.98,3305.00,3578.84,499.84,496.02,24.24,0000 0000 0000 0000 000000
2014-09-26 03:33:37,0.00,0.11,0.00,19.38,25.97,27.96,9.58,39.73,1003.50,2042.99,3467.97,3305.00,3578.75,499.70,496.11,24.28,0000 0000 0000 0000 000000
2014-09-26 03:38:38,0.01,0.11,0.00,19.28,25.97,27.88,9.63,39.83,1003.56,2042.99,3467.81,3305.00,3578.35,500.25,496.74,24.32,0000 0000 0000 0000 000000
2014-09-26 03:43:39,-0.00,0.11,0.00,19.26,25.96,27.76,9.57,39.67,1003.57,2042.99,3467.70,3305.00,3578.14,499.84,496.48,24.36,0000 0000 0000 0000 000000
2014-09-26 03:48:40,0.00,0.11,0.00,19.34,25.95,27.75,9.63,39.73,1003.56,2042.99,3467.54,3305.00,3578.06,500.06,496.48,24.41,0000 0000 0000 0000 000000
2014-09-26 03:53:41,0.00,0.11,0.00,19.44,25.95,27.72,9.63,39.75,1003.49,2042.99,3467.34,3305.00,3578.03,500.12,496.16,24.45,0000 0000 0000 0000 000000
2014-09-26 03:58:43,0.00,0.11,0.00,19.30,25.94,27.60,9.63,39.61,1003.47,2042.99,3467.07,3305.00,3578.00,499.93,496.36,24.49,0000 0000 0000 0000 000000
2014-09-26 04:03:44,0.00,0.11,0.00,19.24,25.92,27.50,9.58,39.62,1003.47,2043.01,3467.06,3305.00,3578.00,499.80,496.41,24.53,0000 0000 0000 0000 000000
2014-09-26 04:08:45,0.00,0.11,0.00,19.21,25.92,27.54,9.60,39.71,1003.47,2043.00,3467.01,3305.00,3578.00,499.96,496.56,24.57,0000 0000 0000 0000 000000
2014-09-26 04:13:46,0.00,0.11,0.00,19.20,25.91,27.71,9.64,39.75,1003.45,2043.02,3467.01,3305.00,3578.00,500.11,496.80,24.62,0000 0000 0000 0000 000000
2014-09-26 04:18:47,0.00,0.11,0.00,19.32,25.90,27.89,9.71,39.77,1003.44,2043.01,3467.00,3305.00,3577.99,500.04,496.68,24.66,0000 0000 0000 0000 000000
2014-09-26 04:23:49,-0.00,0.11,0.00,19.30,25.90,27.79,9.62,39.57,1003.43,2043.02,3466.99,3305.00,3577.99,500.16,496.67,24.70,0000 0000 0000 0000 000000
2014-09-26 04:28:49,0.00,0.11,0.00,19.04,25.90,27.75,9.67,39.63,1003.43,2043.03,3466.98,3305.00,3577.99,499.80,496.84,24.74,0000 0000 0000 0000 000000
2014-09-26 04:33:50,0.00,0.11,0.00,19.13,25.88,27.57,9.56,39.65,1003.43,2043.08,3466.99,3305.00,3577.98,499.86,496.61,24.78,0000 0000 0000 0000 000000
2014-09-26 04:38:52,0.00,0.11,0.00,19.05,25.87,27.42,9.70,39.85,1003.43,2043.11,3467.00,3305.00,3577.99,500.23,497.15,24.83,0000 0000 0000 0000 000000
2014-09-26 04:43:53,0.01,0.12,0.00,19.13,25.87,27.41,9.61,39.84,1003.43,2043.20,3467.01,3305.02,3577.99,499.95,496.93,24.87,0000 0000 0000 0000 000000
2014-09-26 04:48:54,0.01,0.12,0.00,19.21,25.86,27.68,9.65,39.75,1003.43,2043.44,3467.00,3305.04,3578.00,500.24,496.75,24.91,0000 0000 0000 0000 000000
2014-09-26 04:53:55,0.03,0.12,0.00,19.22,25.85,27.83,9.67,39.88,1003.43,2043.59,3467.01,3305.02,3578.00,500.10,496.63,24.95,0000 0000 0000 0000 000000
2014-09-26 04:58:56,0.01,0.12,0.00,19.25,25.85,28.01,9.56,39.77,1003.43,2043.81,3467.01,3305.09,3578.00,499.36,496.03,24.99,0000 0000 0000 0000 000000
2014-09-26 05:03:57,0.01,0.12,0.00,19.10,25.85,27.94,9.65,39.67,1003.43,2043.89,3467.01,3305.08,3578.00,500.14,496.92,25.03,0000 0000 0000 0000 000000
2014-09-26 05:08:59,-0.01,0.12,0.00,19.24,25.83,27.80,9.65,39.66,1003.43,2043.87,3467.00,3305.09,3578.00,500.19,496.67,25.08,0000 0000 0000 0000 000000
2014-09-26 05:14:00,0.00,0.12,0.00,19.17,25.82,27.69,9.65,39.63,1003.43,2043.92,3467.01,3305.10,3578.00,500.34,497.02,25.12,0000 0000 0000 0000 000000
2014-09-26 05:19:01,-0.00,0.12,0.00,19.08,25.82,27.68,9.60,39.61,1003.43,2043.94,3467.00,3305.07,3578.00,499.92,496.73,25.16,0000 0000 0000 0000 000000
2014-09-26 05:24:02,0.00,0.12,0.00,19.05,25.82,27.73,9.59,39.77,1003.43,2043.97,3467.00,3305.21,3578.00,499.90,496.82,25.20,0000 0000 0000 0000 000000
2014-09-26 05:29:03,0.00,0.12,0.00,19.20,25.82,27.76,9.63,39.69,1003.42,2043.97,3467.00,3305.19,3578.00,499.84,496.33,25.24,0000 0000 0000 0000 000000
2014-09-26 05:34:04,0.00,0.12,0.00,19.22,25.80,27.77,9.62,39.76,1003.40,2043.98,3467.00,3305.19,3578.00,499.88,496.33,25.29,0000 0000 0000 0000 000000
2014-09-26 05:39:05,-0.00,0.12,0.00,19.07,25.80,27.56,9.59,39.63,1003.35,2043.99,3467.00,3305.32,3578.00,499.84,496.64,25.33,0000 0000 0000 0000 000000
2014-09-26 05:44:06,-0.00,0.12,0.00,19.11,25.80,27.64,9.58,39.67,1003.27,2043.99,3466.99,3305.51,3577.99,499.51,496.14,25.37,0000 0000 0000 0000 000000
2014-09-26 05:49:08,0.00,0.12,0.00,19.14,25.80,27.65,9.66,39.79,1003.12,2043.98,3466.98,3305.27,3577.99,499.93,496.51,25.41,0000 0000 0000 0000 000000
2014-09-26 05:54:09,-0.01,0.12,0.00,19.09,25.78,27.69,9.64,39.62,1003.05,2043.99,3466.99,3305.53,3577.99,500.15,496.92,25.45,0000 0000 0000 0000 000000
2014-09-26 05:59:10,0.01,0.12,0.00,18.99,25.77,27.64,9.57,39.64,1003.09,2043.99,3466.99,3305.52,3577.99,499.93,496.70,25.50,0000 0000 0000 0000 000000
2014-09-26 06:04:11,-0.00,0.12,0.00,19.01,25.77,27.56,9.67,39.77,1003.10,2043.99,3466.99,3305.54,3577.99,500.11,496.79,25.54,0000 0000 0000 0000 000000
2014-09-26 06:09:13,-0.01,0.12,0.00,19.01,25.77,27.64,9.66,39.84,1003.02,2043.99,3466.99,3305.60,3577.99,499.94,496.73,25.58,0000 0000 0000 0000 000000
2014-09-26 06:14:14,-0.00,0.12,0.00,19.03,25.75,27.83,9.67,39.77,1003.10,2043.99,3466.99,3305.90,3577.99,499.96,496.64,25.62,0000 0000 0000 0000 000000
2014-09-26 06:19:15,0.00,0.12,0.00,18.95,25.75,27.69,9.63,39.77,1003.13,2043.99,3466.99,3305.91,3577.99,499.76,496.65,25.66,0000 0000 0000 0000 000000
2014-09-26 06:24:17,0.00,0.12,0.00,18.97,25.75,27.65,9.68,39.66,1003.03,2044.00,3466.99,3305.94,3577.99,500.10,496.89,25.71,0000 0000 0000 0000 000000
2014-09-26 06:29:17,0.00,0.12,0.00,19.10,25.73,27.75,9.59,39.77,1002.98,2044.00,3466.98,3305.95,3578.00,499.99,496.57,25.75,0000 0000 0000 0000 000000
2014-09-26 06:34:18,0.00,0.12,0.00,19.09,25.72,27.75,9.64,39.69,1002.99,2044.01,3466.98,3305.96,3578.00,499.78,496.34,25.79,0000 0000 0000 0000 000000
2014-09-26 06:39:20,-0.00,0.12,0.00,19.26,25.72,27.78,9.63,39.52,1003.00,2044.02,3466.99,3305.96,3578.00,500.10,496.42,25.83,0000 0000 0000 0000 000000
2014-09-26 06:44:21,-0.00,0.12,0.00,19.18,25.71,27.64,9.68,39.64,1002.98,2044.01,3466.98,3305.95,3578.00,499.83,496.20,25.87,0000 0000 0000 0000 000000
2014-09-26 06:49:22,0.00,0.12,0.00,19.16,25.70,27.70,9.62,39.75,1002.99,2044.02,3466.99,3305.97,3578.00,499.86,496.23,25.92,0000 0000 0000 0000 000000
2014-09-26 06:54:23,0.00,0.12,0.00,19.03,25.70,27.66,9.62,39.83,1002.97,2044.01,3466.98,3305.95,3577.99,499.92,496.33,25.96,0000 0000 0000 0000 000000
2014-09-26 06:59:24,0.00,0.12,0.00,18.95,25.69,27.65,9.62,39.86,1002.97,2044.02,3466.99,3305.96,3577.99,499.75,496.60,26.00,0000 0000 0000 0000 000000
2014-09-26 07:04:25,0.01,0.12,0.00,18.86,25.68,27.73,9.70,39.75,1002.96,2044.07,3466.99,3305.98,3577.99,499.97,497.03,26.04,0000 0000 0000 0000 000000
2014-09-26 07:09:25,-0.00,0.12,0.00,18.93,25.67,27.81,9.65,39.67,1002.95,2044.05,3466.99,3305.97,3577.99,500.05,496.78,26.08,0000 0000 0000 0000 000000
2014-09-26 07:14:26,-0.00,0.12,0.00,18.94,25.67,27.67,9.67,39.83,1002.95,2044.03,3466.98,3305.98,3577.99,500.22,497.07,26.12,0000 0000 0000 0000 000000
2014-09-26 07:19:27,-0.00,0.12,0.00,18.97,25.66,27.75,9.59,39.78,1002.97,2044.06,3466.98,3305.98,3577.99,499.63,496.54,26.17,0000 0000 0000 0000 000000
2014-09-26 07:24:28,0.03,0.12,0.00,19.11,25.65,27.85,9.70,39.67,1002.97,2044.23,3466.98,3305.99,3577.99,499.96,496.50,26.21,0000 0000 0000 0000 000000
2014-09-26 07:29:29,-0.01,0.12,0.00,19.03,25.65,27.88,9.63,39.67,1003.01,2044.29,3466.98,3305.99,3577.99,499.76,496.31,26.25,0000 0000 0000 0000 000000
2014-09-26 07:34:31,0.02,0.12,0.00,18.90,25.65,27.78,9.60,39.73,1003.12,2044.48,3466.99,3305.99,3577.99,499.77,496.71,26.29,0000 0000 0000 0000 000000
2014-09-26 07:39:32,0.04,0.12,0.00,18.81,25.63,27.74,9.57,39.94,1003.26,2044.76,3466.99,3305.99,3577.99,499.45,496.57,26.33,0000 0000 0000 0000 000000
2014-09-26 07:44:33,0.01,0.12,0.00,18.86,25.62,27.68,9.68,39.71,1003.34,2044.88,3466.99,3305.99,3578.00,500.06,497.20,26.38,0000 0000 0000 0000 000000
2014-09-26 07:49:34,0.00,0.12,0.00,19.00,25.62,27.84,9.66,39.73,1003.37,2044.96,3466.99,3306.00,3578.01,499.87,496.94,26.42,0000 0000 0000 0000 000000
2014-09-26 07:54:36,-0.00,0.12,0.00,19.04,25.62,27.97,9.65,39.86,1003.39,2044.97,3466.98,3306.00,3578.00,499.87,496.78,26.46,0000 0000 0000 0000 000000
2014-09-26 07:59:37,0.00,0.12,0.00,18.96,25.61,27.86,9.62,39.91,1003.41,2044.96,3466.97,3306.00,3578.00,499.50,496.57,26.50,0000 0000 0000 0000 000000
2014-09-26 08:04:37,0.00,0.12,0.00,19.07,25.60,27.85,9.64,39.97,1003.41,2044.98,3466.95,3306.00,3578.00,500.04,496.91,26.54,0000 0000 0000 0000 000000
2014-09-26 08:09:39,0.00,0.12,0.00,18.92,25.60,27.83,9.75,39.80,1003.41,2044.97,3466.91,3306.00,3578.00,500.16,497.25,26.59,0000 0000 0000 0000 000000
2014-09-26 08:14:40,0.00,0.12,0.00,19.01,25.60,27.90,9.62,39.77,1003.38,2044.98,3466.96,3306.00,3578.00,499.82,496.71,26.63,0000 0000 0000 0000 000000
2014-09-26 08:19:41,0.00,0.12,0.00,18.94,25.60,27.82,9.66,39.85,1003.43,2044.99,3466.94,3306.00,3578.00,500.41,497.30,26.67,0000 0000 0000 0000 000000
2014-09-26 08:24:42,0.00,0.12,0.00,19.02,25.58,27.81,9.64,39.67,1003.43,2044.99,3466.96,3306.00,3578.00,499.92,496.77,26.71,0000 0000 0000 0000 000000
2014-09-26 08:29:43,0.00,0.12,0.00,19.04,25.57,27.89,9.60,39.73,1003.43,2044.99,3466.97,3306.00,3578.00,499.67,496.54,26.75,0000 0000 0000 0000 000000
2014-09-26 08:34:44,0.00,0.12,0.00,18.97,25.57,27.93,9.59,39.85,1003.43,2044.99,3466.97,3306.00,3578.00,499.66,496.70,26.79,0000 0000 0000 0000 000000
2014-09-26 08:39:45,0.00,0.12,0.00,19.05,25.57,27.98,9.58,39.88,1003.43,2044.99,3466.96,3306.00,3578.00,499.78,496.63,26.84,0000 0000 0000 0000 000000
2014-09-26 08:44:47,0.00,0.12,0.00,18.90,25.57,27.85,9.68,39.71,1003.43,2044.99,3466.98,3306.02,3578.00,500.09,497.19,26.88,0000 0000 0000 0000 000000
2014-09-26 08:49:48,0.00,0.12,0.00,18.87,25.57,27.87,9.70,39.77,1003.43,2044.99,3466.98,3306.01,3578.00,499.89,496.86,26.92,0000 0000 0000 0000 000000
2014-09-26 08:54:49,0.00,0.12,0.00,18.95,25.56,27.85,9.57,39.70,1003.43,2044.99,3466.99,3306.01,3578.00,499.54,496.49,26.96,0000 0000 0000 0000 000000
2014-09-26 08:59:50,0.00,0.12,0.00,18.92,25.55,27.80,9.65,39.73,1003.43,2044.99,3466.98,3306.01,3578.00,499.99,497.09,27.00,0000 0000 0000 0000 000000
2014-09-26 09:04:51,0.00,0.12,0.00,19.00,25.55,27.96,9.71,39.73,1003.43,2044.99,3466.99,3306.00,3578.00,500.24,497.23,27.05,0000 0000 0000 0000 000000
2014-09-26 09:09:52,0.00,0.12,0.00,18.98,25.55,28.03,9.63,39.76,1003.43,2044.99,3466.98,3306.00,3578.00,500.15,497.14,27.09,0000 0000 0000 0000 000000
2014-09-26 09:14:54,0.00,0.12,0.00,19.00,25.54,28.03,9.62,39.76,1003.43,2044.99,3466.98,3306.00,3577.99,499.81,496.79,27.13,0000 0000 0000 0000 000000
2014-09-26 09:19:55,0.00,0.12,0.00,19.00,25.53,28.02,9.68,39.79,1003.43,2044.99,3466.97,3306.00,3577.99,499.59,496.51,27.17,0000 0000 0000 0000 000000
2014-09-26 09:24:56,0.00,0.12,0.00,19.01,25.52,28.07,9.64,39.73,1003.43,2044.99,3466.97,3306.00,3577.99,499.81,496.80,27.21,0000 0000 0000 0000 000000
2014-09-26 09:29:57,0.00,0.12,0.00,19.01,25.52,28.06,9.66,39.77,1003.44,2044.99,3466.95,3306.00,3577.98,499.59,496.66,27.26,0000 0000 0000 0000 000000
2014-09-26 09:34:58,-0.00,0.12,0.00,18.89,25.52,28.10,9.65,39.73,1003.43,2045.00,3466.98,3306.02,3577.99,499.88,496.85,27.30,0000 0000 0000 0000 000000
2014-09-26 09:39:59,0.00,0.12,0.00,18.87,25.52,27.98,9.69,39.74,1003.43,2045.00,3466.99,3306.02,3577.99,500.37,497.26,27.34,0000 0000 0000 0000 000000
2014-09-26 09:45:00,0.00,0.12,0.00,18.83,25.52,27.94,9.62,39.78,1003.43,2045.00,3466.95,3306.00,3577.98,500.33,497.58,27.38,0000 0000 0000 0000 000000
2014-09-26 09:50:01,0.00,0.12,0.00,18.99,25.52,27.93,9.69,39.72,1003.43,2045.00,3466.95,3306.00,3577.98,500.29,497.25,27.42,0000 0000 0000 0000 000000
2014-09-26 09:55:03,0.00,0.12,0.00,18.95,25.51,27.95,9.62,39.62,1003.44,2045.01,3466.98,3306.00,3577.99,499.77,496.82,27.47,0000 0000 0000 0000 000000
2014-09-26 10:00:04,0.00,0.12,0.00,18.88,25.50,27.90,9.73,39.85,1003.44,2045.01,3466.97,3306.01,3577.99,500.10,497.11,27.51,0000 0000 0000 0000 000000
2014-09-26 10:05:05,0.00,0.12,0.00,18.81,25.50,27.87,9.67,39.92,1003.44,2045.02,3466.99,3306.04,3577.99,500.14,497.32,27.55,0000 0000 0000 0000 000000
2014-09-26 10:10:06,-0.00,0.12,0.00,18.93,25.50,27.81,9.67,39.78,1003.43,2045.05,3466.99,3306.06,3577.99,499.73,496.90,27.59,0000 0000 0000 0000 000000
2014-09-26 10:15:07,0.01,0.12,0.00,18.94,25.49,27.73,9.65,39.73,1003.44,2045.09,3466.96,3306.04,3577.99,499.67,496.72,27.63,0000 0000 0000 0000 000000
2014-09-26 10:20:09,0.01,0.12,0.00,18.93,25.48,27.76,9.61,39.53,1003.43,2045.17,3466.89,3306.01,3577.99,500.12,497.09,27.67,0000 0000 0000 0000 000000
2014-09-26 10:25:10,0.01,0.12,0.00,18.94,25.47,27.73,9.68,39.73,1003.44,2045.25,3466.62,3306.00,3577.97,499.97,497.26,27.72,0000 0000 0000 0000 000000
2014-09-26 10:30:11,0.01,0.12,0.00,18.98,25.47,27.87,9.66,39.65,1003.43,2045.41,3466.85,3306.00,3577.97,500.00,496.93,27.76,0000 0000 0000 0000 000000
2014-09-26 10:35:12,0.02,0.13,0.00,18.99,25.47,27.86,9.60,39.69,1003.44,2045.60,3466.95,3306.00,3577.97,499.55,496.43,27.80,0000 0000 0000 0000 000000
2014-09-26 10:40:13,0.02,0.13,0.00,18.93,25.45,27.84,9.69,39.78,1003.44,2045.85,3466.97,3306.01,3577.97,500.05,497.26,27.84,0000 0000 0000 0000 000000
2014-09-26 10:45:14,0.00,0.13,0.00,18.82,25.45,27.81,9.72,39.81,1003.45,2045.87,3466.76,3306.00,3577.90,499.99,497.26,27.88,0000 0000 0000 0000 000000
2014-09-26 10:50:15,0.00,0.13,0.00,18.78,25.45,27.70,9.63,39.88,1003.45,2045.83,3466.45,3306.00,3577.81,499.85,497.12,27.93,0000 0000 0000 0000 000000
2014-09-26 10:55:16,-0.00,0.13,0.00,18.92,25.44,27.57,9.66,39.78,1003.45,2045.77,3466.23,3306.00,3577.56,500.06,497.18,27.97,0000 0000 0000 0000 000000
2014-09-26 11:00:18,0.01,0.13,0.00,18.95,25.42,27.64,9.71,39.77,1003.45,2045.87,3466.48,3306.00,3577.61,500.41,497.27,28.01,0000 0000 0000 0000 000000
2014-09-26 11:05:19,-0.00,0.13,0.00,18.87,25.42,27.79,9.72,39.83,1003.46,2045.94,3466.75,3306.00,3577.85,500.28,497.49,28.05,0000 0000 0000 0000 000000
2014-09-26 11:10:20,0.00,0.13,0.00,18.81,25.42,27.94,9.69,39.78,1003.48,2045.95,3466.73,3306.00,3577.76,499.89,497.21,28.09,0000 0000 0000 0000 000000
2014-09-26 11:15:21,0.01,0.13,0.00,18.75,25.42,27.94,9.69,39.70,1003.51,2045.96,3466.73,3306.00,3577.83,500.14,497.57,28.14,0000 0000 0000 0000 000000
2014-09-26 11:20:23,0.00,0.13,0.00,18.76,25.40,27.87,9.70,39.69,1003.51,2045.97,3466.58,3306.00,3577.79,500.40,497.74,28.18,0000 0000 0000 0000 000000
2014-09-26 11:25:24,0.01,0.13,0.00,18.79,25.40,27.86,9.65,39.69,1003.52,2045.99,3466.58,3306.00,3577.83,500.19,497.55,28.22,0000 0000 0000 0000 000000
2014-09-26 11:30:25,0.01,0.13,0.00,18.78,25.40,27.75,9.66,39.63,1003.58,2045.98,3466.45,3306.00,3577.70,500.00,497.45,28.26,0000 0000 0000 0000 000000
2014-09-26 11:35:26,0.01,0.13,0.00,18.71,25.40,27.74,9.67,39.58,1003.62,2045.99,3466.10,3306.00,3577.24,499.65,497.28,28.30,0000 0000 0000 0000 000000
2014-09-26 11:40:27,0.00,0.13,0.00,18.67,25.38,27.59,9.65,39.56,1003.60,2045.99,3466.01,3305.99,3577.08,499.84,497.54,28.35,0000 0000 0000 0000 000000
2014-09-26 11:45:28,0.00,0.13,0.00,18.82,25.37,27.59,9.67,39.54,1003.52,2045.99,3466.01,3305.99,3577.07,500.01,497.34,28.39,0000 0000 0000 0000 000000
2014-09-26 11:50:29,0.00,0.13,0.00,18.73,25.37,27.54,9.70,39.58,1003.51,2045.99,3466.02,3305.98,3577.04,499.89,497.29,28.43,0000 0000 0000 0000 000000
2014-09-26 11:55:30,0.00,0.13,0.00,18.77,25.37,27.58,9.68,39.58,1003.55,2045.99,3466.00,3305.98,3577.01,499.79,497.21,28.47,0000 0000 0000 0000 000000
2014-09-26 12:00:32,0.00,0.13,0.00,18.73,25.35,27.46,9.66,39.48,1003.54,2045.99,3466.00,3305.97,3577.00,500.13,497.44,28.51,0000 0000 0000 0000 000000
2014-09-26 12:05:33,0.00,0.13,0.00,18.80,25.35,27.56,9.70,39.48,1003.63,2045.99,3466.01,3305.97,3577.01,500.15,497.65,28.55,0000 0000 0000 0000 000000
2014-09-26 12:10:34,0.00,0.13,0.00,18.90,25.35,27.69,9.67,39.58,1003.73,2045.99,3466.04,3305.98,3577.01,500.07,497.28,28.60,0000 0000 0000 0000 000000
2014-09-26 12:15:36,0.00,0.13,0.00,18.83,25.34,27.82,9.67,39.59,1003.82,2045.99,3466.05,3305.98,3577.01,500.06,497.42,28.64,0000 0000 0000 0000 000000
2014-09-26 12:20:37,0.00,0.13,0.00,18.74,25.32,27.69,9.62,39.54,1003.84,2045.99,3466.05,3305.99,3577.02,499.74,497.40,28.68,0000 0000 0000 0000 000000
2014-09-26 12:25:38,-0.00,0.13,0.00,18.80,25.32,27.82,9.69,39.53,1003.86,2046.00,3466.20,3305.99,3577.06,500.21,497.82,28.72,0000 0000 0000 0000 000000
2014-09-26 12:30:39,0.00,0.13,0.00,18.81,25.32,27.87,9.71,39.57,1003.83,2046.01,3466.13,3305.99,3577.08,499.82,497.55,28.76,0000 0000 0000 0000 000000
2014-09-26 12:35:40,0.00,0.13,0.00,18.79,25.32,27.89,9.69,39.51,1003.85,2046.00,3466.02,3305.98,3577.02,500.14,497.67,28.81,0000 0000 0000 0000 000000
2014-09-26 12:40:41,0.00,0.13,0.00,18.77,25.32,27.82,9.70,39.65,1003.89,2046.00,3466.01,3305.99,3577.01,500.03,497.66,28.85,0000 0000 0000 0000 000000
2014-09-26 12:45:42,-0.00,0.13,0.00,18.83,25.32,27.81,9.64,39.46,1003.90,2046.02,3466.05,3305.99,3577.03,500.15,497.69,28.89,0000 0000 0000 0000 000000
2014-09-26 12:50:43,-0.00,0.13,0.00,18.88,25.32,27.78,9.70,39.45,1003.92,2046.01,3466.05,3305.99,3577.05,499.92,497.16,28.93,0000 0000 0000 0000 000000
2014-09-26 12:55:44,0.00,0.13,0.00,18.82,25.32,27.78,9.74,39.50,1003.92,2046.03,3466.09,3305.99,3577.04,500.40,497.80,28.97,0000 0000 0000 0000 000000
2014-09-26 13:00:45,-0.01,0.13,0.00,18.83,25.31,27.82,9.67,39.50,1003.92,2046.03,3466.32,3305.99,3577.09,499.72,497.32,29.01,0000 0000 0000 0000 000000